Regional Weather Roundup
Issued by NWS

Home | Current Version | Previous Version | Text Only | Print | Product List | Glossary Off
Versions: 1 2 3 4 5 6 7 8 9 10 11 12 13 14 15 16 17 18 19 20 21 22 23 24 25 26 27 28 29 30 31 32 33 34 35 36 37 38 39 40 41 42 43 44 45 46 47 48 49 50

000
ASUS43 KDMX 221407
RWRIA

WEATHER ROUNDUP FOR IOWA
NATIONAL WEATHER SERVICE DES MOINES IA
800 AM CST MON DEC 22 2014

NOTE: "FAIR" INDICATES FEW OR NO CLOUDS BELOW 12,000 FEET WITH NO
SIGNIFICANT WEATHER AND/OR OBSTRUCTIONS TO VISIBILITY.

* - THESE STATIONS ARE NOT NWS STATIONS...THUS NOT UNDER NWS
QUALITY CONTROL.  THEY ALSO DO NOT REPORT WEATHER SUCH
AS PRECIPITATION OR FOG.

IAZ001>003-012>014-020>022-031>034-043>046-221500-
   NORTHWEST IOWA

CITY           SKY/WX    TMP DP  RH WIND       PRES   REMARKS
CARROLL *      MIX PCPN  39  39 100 SE16      29.57S WCI  30
CHEROKEE *     DRIZZLE   39  39 100 SE13G21   29.53S WCI  32
DENISON *      CLOUDY    39  39 100 SE14      29.53S FOG     WCI  31
LE MARS *      CLOUDY    41  41 100 SE10      29.50S FOG
ORANGE CITY *  LGT RAIN  41  39  93 S10       29.49S
SHELDON *      MIX PCPN  39  39 100 SE16      29.49F WCI  30
SIOUX CITY     LGT RAIN  43  41  93 S14       29.50S FOG
SPENCER        LGT RAIN  40  37  89 SE17      29.54F WCI  31
STORM LAKE *   MIX PCPN  39  39 100 S17       29.55S VSB 1   WCI  30
$$

IAZ055>058-069>071-079>083-090>094-221500-
   SOUTHWEST IOWA

CITY           SKY/WX    TMP DP  RH WIND       PRES   REMARKS
ATLANTIC *     CLOUDY    39  39 100 SE13G18   29.57S FOG     WCI  32
AUDUBON *      LGT RAIN  39  36  87 SE9       29.58S WCI  33
CLARINDA *     CLOUDY    41  39  93 SE8G15    29.60F FOG
COUNCIL BLFS * CLOUDY    41  41 100 S10       29.53F FOG
CRESTON *      CLOUDY    37  37 100 SE13G20   29.60S FOG     WCI  29
HARLAN  *      MIX PCPN  41  41 100 S12G18    29.58F
LAMONI         LGT RAIN  39  37  92 SE10      29.62F WCI  32
RED OAK *      MIX PCPN  41  41 100 SE12      29.57F
SHENANDOAH *   CLOUDY    41  41 100 SE15      29.56F FOG
$$

IAZ047>049-059>061-072>074-084-221500-
   CENTRAL IOWA

CITY           SKY/WX    TMP DP  RH WIND       PRES   REMARKS
AMES           LGT RAIN  38  36  92 SE12      29.63F FOG     WCI  30
ANKENY *       CLOUDY    39  37  93 SE13      29.63F FOG     WCI  32
CHARITON *     CLOUDY    39  37  93 SE10G16   29.64F FOG     WCI  32
DES MOINES     CLOUDY    40  36  86 SE14      29.64F WCI  32
GRINNELL*      RAIN      37  36  93 SE9       29.68F WCI  31
KNOXVILLE *    CLOUDY    39  36  87 SE13      29.64F FOG     WCI  32
MARSHALLTOWN   LGT RAIN  36  35  96 SE14      29.66F FOG     WCI  27
PELLA *        DRIZZLE   37  36  93 SE12      29.68F WCI  30
PERRY *        CLOUDY    39  39 100 SE14      29.60F FOG     WCI  31
$$

IAZ004>006-015-016-023>025-035-036-221500-
   NORTH CENTRAL IOWA

CITY           SKY/WX    TMP DP  RH WIND       PRES   REMARKS
ALGONA *       MIX PCPN  37  37 100 SE16      29.59F VSB 1   WCI  28
CLARION *      MIX PCPN  37  37 100 SE17G23   29.62F WCI  28
ESTHERVILLE    MIX PCPN  37  37 100 SE18G26   29.56S VSB 1   WCI  27
FORT DODGE *   CLOUDY    37  36  93 SE8       29.60F WCI  31
MASON CITY     LGT RAIN  35  35 100 SE15      29.66S FOG     WCI  25
FOREST CITY *  CLOUDY    36  36 100 SE14      29.63S FOG     WCI  27
IOWA FALLS *   DRIZZLE   36  36 100 SE13      29.65F WCI  27
$$

IAZ007>011-017>019-026>030-037>042-050>054-066-221500-
   NORTHEAST IOWA

CITY           SKY/WX    TMP DP  RH WIND       PRES   REMARKS
CEDAR RAPIDS   CLOUDY    37  33  85 SE10      29.72F WCI  30
CHARLES CITY * CLOUDY    36  36 100 SE17      29.69F FOG     WCI  25
CLINTON *      CLOUDY    34  30  86 E14       29.81F WCI  24
DECORAH *      CLOUDY    34  34 100 SE10G17   29.73S FOG     WCI  26
DUBUQUE        CLOUDY    34  31  88 SE15      29.78S FOG     WCI  24
MONTICELLO *   CLOUDY    36  36 100 SE12      29.76F FOG     WCI  27
OELWEIN *      CLOUDY    34  34 100 SE15      29.72F FOG     WCI  24
WATERLOO       CLOUDY    37  34  89 SE17      29.70F WCI  27
$$

IAZ064-065-067-068-078-221500-
   EAST CENTRAL IOWA

CITY           SKY/WX    TMP DP  RH WIND       PRES   REMARKS
DAVENPORT      CLOUDY    35  30  82 SE12      29.78F HAZE    WCI  27
IOWA CITY      CLOUDY    38  33  82 SE8       29.76F WCI  32
MT. PLEASANT * DRIZZLE   37  32  81 SE10      29.73F WCI  30
MUSCATINE *    CLOUDY    39  32  75 SE10      29.76F WCI  32
QUAD CITIES    CLOUDY    36  32  85 E10       29.78F FOG     WCI  28
$$

IAZ062-063-075>077-085>089-095>099-221500-
   SOUTHEAST IOWA

CITY           SKY/WX    TMP DP  RH WIND       PRES   REMARKS
BURLINGTON     LGT RAIN  38  32  79 SE12      29.73F WCI  30
FAIRFIELD *    CLOUDY    37  34  87 SE13      29.71F WCI  29
FORT MADISON * DRIZZLE   39  36  87 SE8       29.73F WCI  34
KEOKUK *       MIX PCPN  39  34  81 E12       29.72F WCI  32
OSKALOOSA *    CLOUDY    37  36  93 SE10      29.69F FOG     WCI  30
CENTERVILLE *  CLOUDY    37  37 100 SE12      29.67F WCI  30
OTTUMWA        CLOUDY    39  34  82 SE13      29.68F WCI  31
WASHINGTON *   CLOUDY    37  37 100 SE12      29.73S WCI  30
$$

ABBREVIATIONS USED IN REMARKS
   TC - TEMPERATURES IN CELSIUS
  WCI - WIND CHILL INDEX
   HX - HEAT INDEX
  VSB - VISIBILITY
$$



USA.gov is the U.S. government's official web portal to all federal, state and local government web resources and services.